Location: Hilton Head Island
(32.2163°N, 80.7526°W)
Time: 21:43:54
(UTC-04:00)

Explorer 7 - Pass Details

Date: 16 February 2026
Orbit: 430 x 541 km, 50.2° (Epoch: 12 March)

Event Time Altitude Azimuth Distance (km) Brightness Sun altitude
Rises 15:19:38 0° 240° (WSW) 2,398 11.2 31.1°
Reaches altitude 10° 15:21:46 10° 247° (WSW) 1,544 10.5 30.7°
Maximum altitude 15:25:07 45° 321° (NW) 618 7.4 30.2°
Drops below altitude 10° 15:28:35 10° 36° (NE) 1,600 8.8 29.6°
Sets 15:30:51 0° 42° (NE) 2,499 9.6 29.3°
